User: anonymous   Login
Location: *
(10.4782°N, 67.2163°W)
Time: 20:05:58
(UTC+00:00)
Language:

SPOT 1/Viking Rocket - Orbit

View from above orbital plane
View from above orbital plane
View from above satellite
View from above satellite

Ground track
Ground track

The orbit data is extracted from the following two-line orbital elements,

1 16615U 86019C   24207.17572253  .00000602  00000-0  23672-3 0  9991
2 16615  98.2753 242.1606 0010403 287.1870 116.6881 14.32587524 10774
Epoch (UTC): 25 July 2024 04:13:02
Eccentricity: 0.0010403
inclination: 98.2753°
perigee height: 775 km
apogee height: 790 km
right ascension of ascending node: 242.1606°
argument of perigee: 287.1870°
revolutions per day: 14.32587524
mean anomaly at epoch: 116.6881°
orbit number at epoch: 1077

The dashed part of the orbit path shows where the satellite is in the earth's shadow,  

DLR